Weather History for Spirit of St Louis, MO

Change the Weather History Date:

Sunday, December 30, 2012

  Actual Average Record
Temperature  
Mean Temperature 28 °F -  
Max Temperature 42 °F 39 °F 68 °F (2002)
Min Temperature 15 °F 21 °F 7 °F (1998)
Degree Days  
Heating Degree Days 36    
Moisture  
Dew Point 19 °F    
Average Humidity 65    
Maximum Humidity 88    
Minimum Humidity 41    
Precipitation  
Precipitation 0.00 in - - ()
Sea Level Pressure  
Sea Level Pressure 30.36 in    
Wind  
Wind Speed 4 mph (SSW)    
Max Wind Speed 10 mph    
Max Gust Speed 18 mph    
Visibility 9 miles    
Events      
Averages and records for this station are not official NWS values.
T = Trace of Precipitation, MM = Missing Value Source: NWS Daily Summary

Daily Weather History Graph

Daily Weather History Graph

Search for Another Location

Airport:

Trip Planner

Search our weather history database for the weather conditions in past years. The results will help you decide how hot, cold, wet, or windy it might be!

Date:

Astronomy

Dec. 30, 2012 Rise Set
Actual Time 7:20 AM CST 4:50 PM CST
Civil Twilight 6:50 AM CST 5:20 PM CST
Nautical Twilight 6:17 AM CST 5:53 PM CST
Astronomical Twilight 5:44 AM CST 6:26 PM CST
Moon 7:20 PM CST (12/30) 8:30 AM CST (12/30)
Length of Visible Light 10h 29m
Length of Day
9h 30m
Waning Gibbous, 95% of the Moon is Illuminated
Dec 30
Waning Gibbous
Jan 4
Last Quarter
Jan 11
New
Jan 18
First Quarter
Jan 26
Full

Hourly Weather History & Observations

Time (CST) Temp. Windchill Dew Point Humidity Pressure Visibility Wind Dir Wind Speed Gust Speed Precip Events Conditions
12:54 AM 17.1 °F 11.7 °F 12.9 °F 84% 30.37 in 9.0 mi WSW 3.5 mph - N/A   Clear
1:54 AM 17.1 °F - 12.9 °F 84% 30.40 in 8.0 mi Calm Calm - N/A   Clear
2:54 AM 16.0 °F - 12.0 °F 84% 30.42 in 8.0 mi Calm Calm - N/A   Clear
3:54 AM 16.0 °F - 12.9 °F 88% 30.41 in 7.0 mi Calm Calm - N/A   Clear
4:54 AM 16.0 °F - 12.0 °F 84% 30.42 in 7.0 mi Calm Calm - N/A   Clear
5:54 AM 17.1 °F - 12.9 °F 84% 30.43 in 8.0 mi Calm Calm - N/A   Clear
6:54 AM 15.1 °F - 12.0 °F 88% 30.44 in 8.0 mi Calm Calm - N/A   Clear
7:54 AM 17.1 °F - 14.0 °F 88% 30.44 in 8.0 mi Calm Calm - N/A   Mostly Cloudy
8:54 AM 24.1 °F - 19.9 °F 84% 30.45 in 8.0 mi Calm Calm - N/A   Mostly Cloudy
9:54 AM 34.0 °F 27.2 °F 21.0 °F 59% 30.46 in 10.0 mi SW 8.1 mph - N/A   Mostly Cloudy
10:54 AM 37.9 °F 32.7 °F 19.9 °F 48% 30.44 in 10.0 mi WSW 6.9 mph - N/A   Mostly Cloudy
11:54 AM 39.0 °F 35.7 °F 19.9 °F 46% 30.40 in 10.0 mi West 4.6 mph - N/A   Clear
12:54 PM 41.0 °F 36.4 °F 21.0 °F 45% 30.38 in 10.0 mi South 6.9 mph - N/A   Mostly Cloudy
1:54 PM 42.1 °F 36.6 °F 19.9 °F 41% 30.34 in 10.0 mi South 9.2 mph - N/A   Clear
2:54 PM 42.1 °F 37.1 °F 23.0 °F 47% 30.34 in 10.0 mi SSE 8.1 mph - N/A   Overcast
3:54 PM 41.0 °F 37.1 °F 24.1 °F 51% 30.33 in 10.0 mi South 5.8 mph - N/A   Overcast
4:54 PM 39.9 °F 35.8 °F 23.0 °F 51% 30.31 in 10.0 mi South 5.8 mph - N/A   Overcast
5:54 PM 37.9 °F 32.7 °F 21.9 °F 53% 30.32 in 10.0 mi South 6.9 mph - N/A   Clear
6:54 PM 37.0 °F 29.8 °F 23.0 °F 57% 30.30 in 10.0 mi South 10.4 mph - N/A   Clear
7:54 PM 37.0 °F 29.8 °F 23.0 °F 57% 30.30 in 10.0 mi South 10.4 mph 18.4 mph N/A   Clear
8:54 PM 36.0 °F 30.3 °F 23.0 °F 59% 30.28 in 10.0 mi SSW 6.9 mph - N/A   Clear
9:54 PM 35.1 °F 32.2 °F 23.0 °F 61% 30.25 in 10.0 mi SSW 3.5 mph - N/A   Clear
10:54 PM 34.0 °F 27.2 °F 23.0 °F 64% 30.25 in 10.0 mi SSW 8.1 mph - N/A   Clear
11:54 PM 35.1 °F 27.9 °F 23.0 °F 61% 30.22 in 10.0 mi SSW 9.2 mph - N/A   Clear